GW0410 Weather Reports


time (UTC)temp
C
wind
direction
speed
KPH
gust
KPH
rain 1hr
cm
rain 24hr
cm
rain mn
cm
humidity
%
barometer
mb
20260507201056 12 0.0 0.0 0.00 0.00 0.00 87 1013.9
20260507200058 12 0.0 0.0 0.00 0.00 0.00 86 1013.6
20260507195022 12 0.0 0.0 0.00 0.00 0.00 85 1013.6
20260507194020 12 96 0.0 0.0 0.00 0.00 0.00 85 1013.6
20260507193153 13 54 1.6 4.8 0.00 0.00 0.00 85 1013.6
20260507192051 13 85 0.0 3.2 0.00 0.00 0.00 82 1013.7
20260507191028 13 162 0.0 1.6 0.00 0.00 0.00 79 1013.7
20260507190024 14 244 0.0 4.8 0.00 0.00 0.00 77 1013.3
20260507185019 15 106 0.0 0.0 0.00 0.00 0.00 74 1013.4
20260507184021 15 225 0.0 0.0 0.00 0.00 0.00 70 1013.0
20260507183021 15 264 1.6 4.8 0.00 0.00 0.00 67 1013.0
20260507182022 15 299 1.6 8.0 0.00 0.00 0.00 66 1013.0
20260507181024 15 283 3.2 8.0 0.00 0.00 0.00 66 1012.6
20260507180029 15 259 1.6 4.8 0.00 0.00 0.00 67 1012.3
20260507175046 16 251 3.2 8.0 0.00 0.00 0.00 68 1012.4
20260507174034 16 255 3.2 9.7 0.00 0.00 0.00 66 1012.3
20260507173026 17 259 1.6 4.8 0.00 0.00 0.00 63 1012.0
20260507172027 17 298 0.0 3.2 0.00 0.00 0.00 60 1012.0
20260507171025 17 269 0.0 0.0 0.00 0.00 0.00 61 1012.0
20260507170023 18 0.0 0.0 0.00 0.00 0.00 60 1011.7
20260507165051 18 207 1.6 6.4 0.00 0.00 0.00 58 1011.7
20260507164019 19 217 0.0 3.2 0.00 0.00 0.00 55 1011.8
20260507163024 19 233 0.0 3.2 0.00 0.00 0.00 55 1011.4
20260507162033 19 221 0.0 0.0 0.00 0.00 0.00 54 1011.4
20260507161024 19 158 0.0 4.8 0.00 0.00 0.00 54 1011.3
20260507160036 19 196 1.6 8.0 0.00 0.00 0.00 53 1011.3
20260507155026 20 252 0.0 0.0 0.00 0.00 0.00 52 1011.4
20260507154023 20 170 0.0 6.4 0.00 0.00 0.00 50 1011.4
20260507153028 21 188 1.6 6.4 0.00 0.00 0.00 48 1011.5
20260507152031 21 151 1.6 6.4 0.00 0.00 0.00 48 1011.5
20260507151019 23 205 1.6 4.8 0.00 0.00 0.00 46 1011.9
20260507150022 22 215 0.0 3.2 0.00 0.00 0.00 47 1011.9
20260507145051 22 287 1.6 4.8 0.00 0.00 0.00 46 1011.9
20260507144027 21 225 3.2 6.4 0.00 0.00 0.00 49 1011.5
20260507143026 22 282 1.6 6.4 0.00 0.00 0.00 48 1012.0
20260507142035 25 254 3.2 11.3 0.00 0.00 0.00 45 1012.1
20260507141031 21 261 1.6 8.0 0.00 0.00 0.00 46 1011.9
20260507140026 21 264 1.6 6.4 0.00 0.00 0.00 51 1011.5
20260507135021 22 254 6.4 12.9 0.00 0.00 0.00 48 1011.6
20260507134019 23 238 3.2 9.7 0.00 0.00 0.00 46 1012.0
20260507133027 23 200 0.0 3.2 0.00 0.00 0.00 45 1012.0
20260507132031 23 229 3.2 8.0 0.00 0.00 0.00 46 1012.0
20260507131107 21 281 1.6 6.4 0.00 0.00 0.00 50 1012.3
20260507130024 21 258 1.6 8.0 0.00 0.00 0.00 51 1012.3
20260507125057 22 270 4.8 11.3 0.00 0.00 0.00 51 1012.3
20260507124021 22 275 1.6 6.4 0.00 0.00 0.00 50 1012.4
20260507123028 22 227 0.0 3.2 0.00 0.00 0.00 52 1012.7
20260507122033 20 192 1.6 6.4 0.00 0.00 0.00 54 1012.6
20260507121320 21 270 1.6 1.6 0.00 0.00 0.00 56 1013.0
20260507120046 20 277 0.0 4.8 0.00 0.00 0.00 55 1013.0
20260507115046 20 268 3.2 11.3 0.00 0.00 0.00 57 1013.0
20260507114022 18 270 4.8 9.7 0.00 0.00 0.00 59 1012.9
20260507113112 19 267 4.8 9.7 0.00 0.00 0.00 60 1012.9
20260507112022 19 261 1.6 8.0 0.00 0.00 0.00 60 1013.0
20260507111111 19 230 3.2 8.0 0.00 0.00 0.00 60 1012.9
20260507110046 20 254 3.2 9.7 0.00 0.00 0.00 59 1013.0
20260507105020 18 275 3.2 11.3 0.00 0.00 0.00 61 1012.9
20260507104025 18 262 3.2 6.4 0.00 0.00 0.00 62 1012.9
20260507103048 20 241 1.6 6.4 0.00 0.00 0.00 59 1013.0
20260507102049 20 255 3.2 11.3 0.00 0.00 0.00 58 1013.0
20260507101024 18 262 4.8 8.0 0.00 0.00 0.00 62 1012.6
20260507100530 18 253 4.8 9.7 0.00 0.00 0.00 63 1013.0
20260507095022 20 258 1.6 6.4 0.00 0.00 0.00 62 1013.1
20260507094030 20 239 0.0 6.4 0.00 0.00 0.00 61 1012.7
20260507093025 20 246 3.2 9.7 0.00 0.00 0.00 62 1012.7
20260507092100 20 236 1.6 8.0 0.00 0.00 0.00 61 1012.7
20260507091108 18 192 0.0 0.0 0.00 0.00 0.00 64 1012.3
20260507090058 19 250 3.2 8.0 0.00 0.00 0.00 66 1012.4
20260507085042 19 301 0.0 4.8 0.00 0.00 0.00 63 1012.4
20260507084038 18 236 1.6 8.0 0.00 0.00 0.00 67 1012.0
20260507083053 18 241 1.6 6.4 0.00 0.00 0.00 67 1012.0
20260507082024 17 250 1.6 4.8 0.00 0.00 0.00 71 1011.9
20260507081033 16 247 1.6 4.8 0.00 0.00 0.00 73 1011.9
20260507080053 16 271 1.6 4.8 0.00 0.00 0.00 74 1011.9
20260507075042 16 245 3.2 8.0 0.00 0.00 0.00 74 1011.9
20260507074051 16 253 4.8 9.7 0.00 0.00 0.00 75 1011.6
20260507073037 16 235 1.6 4.8 0.00 0.00 0.00 76 1011.9
20260507072033 16 266 1.6 4.8 0.00 0.00 0.00 77 1011.9
20260507071053 16 261 1.6 4.8 0.00 0.00 0.00 77 1011.6
20260507070112 16 254 1.6 4.8 0.00 0.00 0.00 78 1011.6
20260507065051 16 271 4.8 9.7 0.00 0.00 0.00 77 1011.6
20260507064044 15 243 1.6 6.4 0.00 0.00 0.00 79 1011.6
20260507063028 15 272 1.6 8.0 0.00 0.00 0.00 80 1011.6
20260507062043 15 274 1.6 6.4 0.00 0.00 0.00 81 1011.6
20260507061027 15 238 0.0 1.6 0.00 0.00 0.00 81 1011.3
20260507060032 16 247 0.0 3.2 0.00 0.00 0.00 81 1011.3
20260507055024 15 0.0 0.0 0.00 0.00 0.00 83 1011.3
20260507054023 14 0.0 0.0 0.00 0.00 0.00 86 1010.9
20260507053023 13 0.0 0.0 0.00 0.00 0.00 88 1010.6
20260507052059 13 320 0.0 0.0 0.00 0.00 0.00 89 1010.5
20260507051053 12 263 1.6 4.8 0.00 0.00 0.00 90 1010.2
20260507050036 12 269 1.6 6.4 0.00 0.00 0.00 90 1009.9
20260507045101 12 254 4.8 8.0 0.00 0.00 0.00 90 1009.9
20260507044051 12 253 3.2 6.4 0.00 0.00 0.00 90 1009.9
20260507043034 12 264 3.2 8.0 0.00 0.00 0.00 90 1009.6
20260507042025 12 264 3.2 8.0 0.00 0.00 0.00 90 1009.6
20260507041045 12 263 3.2 6.4 0.00 0.00 0.00 91 1009.5
20260507040028 12 256 0.0 4.8 0.00 0.00 0.00 91 1009.6
20260507035041 11 287 0.0 0.0 0.00 0.00 0.00 91 1009.6
20260507034023 11 251 0.0 0.0 0.00 0.00 0.00 89 1009.6
20260507033059 12 0.0 0.0 0.00 0.00 0.00 88 1009.3
20260507032022 12 0.0 0.0 0.00 0.00 0.00 88 1009.3
20260507031020 12 266 0.0 4.8 0.00 0.00 0.00 88 1009.0
20260507030034 12 279 0.0 3.2 0.00 0.00 0.00 87 1009.0
20260507025022 12 263 0.0 3.2 0.00 0.00 0.00 87 1008.9
20260507024022 12 137 0.0 0.0 0.00 0.00 0.00 86 1008.6
20260507023027 12 246 1.6 6.4 0.00 0.00 0.00 86 1009.0
20260507022021 12 246 1.6 4.8 0.00 0.00 0.00 85 1008.9
20260507021021 13 235 3.2 8.0 0.00 0.00 0.00 85 1008.7
20260507020026 13 259 3.2 9.7 0.00 0.00 0.00 84 1008.3
20260507015040 13 252 3.2 8.0 0.00 0.00 0.00 83 1008.3
20260507014034 13 242 6.4 11.3 0.00 0.00 0.00 84 1008.3
20260507013048 13 257 3.2 8.0 0.00 0.00 0.00 85 1008.2
20260507012033 13 0.0 0.0 0.00 0.00 0.00 84 1008.2
20260507011029 13 135 0.0 0.0 0.00 0.00 0.00 83 1007.6
20260507010031 13 115 0.0 0.0 0.00 0.00 0.00 82 1007.7
20260507005036 14 257 0.0 0.0 0.00 0.00 0.00 81 1007.7
20260507004048 14 306 0.0 0.0 0.00 0.00 0.00 80 1007.3
20260507003024 14 249 0.0 0.0 0.00 0.00 0.00 79 1007.3
20260507002027 14 194 0.0 0.0 0.00 0.00 0.00 78 1007.3
20260507001021 15 215 0.0 0.0 0.00 0.00 0.00 77 1007.7
20260507000023 15 250 0.0 1.6 0.00 0.00 0.00 76 1007.1
20260506235051 15 197 4.8 14.5 0.00 0.00 0.00 75 1007.1
20260506234048 15 172 4.8 11.3 0.00 0.00 0.00 75 1007.4
20260506233022 15 151 1.6 6.4 0.00 0.00 0.00 75 1007.1
20260506232034 15 232 0.0 0.0 0.00 0.00 0.00 74 1007.1
20260506231023 16 176 0.0 4.8 0.00 0.00 0.00 73 1007.1
20260506230023 16 166 1.6 11.3 0.00 0.00 0.00 73 1007.4
20260506225047 16 194 0.0 1.6 0.00 0.00 0.00 73 1007.4
20260506224051 16 305 0.0 1.6 0.00 0.00 0.00 72 1007.1
20260506223050 16 277 1.6 4.8 0.00 0.00 0.00 72 1007.1
20260506222023 16 272 1.6 4.8 0.00 0.00 0.00 72 1007.1
20260506221021 16 245 1.6 4.8 0.00 0.00 0.00 71 1006.8
20260506220526 16 174 0.0 3.2 0.00 0.00 0.00 70 1006.4
20260506215026 16 182 1.6 14.5 0.00 0.00 0.00 69 1006.4
20260506214054 17 188 1.6 8.0 0.00 0.00 0.00 69 1006.4
20260506213054 17 164 1.6 11.3 0.00 0.00 0.00 68 1006.4
20260506212020 17 178 3.2 9.7 0.00 0.00 0.00 68 1006.4
20260506211025 17 170 3.2 14.5 0.00 0.00 0.00 67 1006.0
20260506210025 17 201 1.6 4.8 0.00 0.00 0.00 67 1006.0
20260506205034 17 175 1.6 4.8 0.00 0.00 0.00 66 1006.1
20260506204027 17 140 1.6 4.8 0.00 0.00 0.00 66 1006.4
20260506203027 17 158 3.2 4.8 0.00 0.00 0.00 65 1006.1
20260506202025 17 169 4.8 9.7 0.00 0.00 0.00 65 1006.0